Date String (YYYY-MM-DD hh:mm:ss) UTC,Instrument flags,Ambient pressure (hPa),Sample flow (lpm),Bypass flow (lpm),Sample temperature (°C),Ambient temperature (°C),ASC tube jacket temperature (°C),LED temperature (°C),Box temperature (°C),Sample RH (%),Span deviation,Mass concentration (μg/m³),Mass concentration (μg/m³),Mass concentration (μg/m³)
DateTimeUTC,F1_M11,P_M11,Q1_M11,Q2_M11,T1_M11,T2_M11,T3_M11,T4_M11,T5_M11,U1_M11,ZSPAN_M11,X0_M11,X2_M11,X1_M11
2022-11-24 12:00:00,,0832.1,5.01,0.00,21.6,20.5,00.0,30.5,23.5,14.3,0000.0,0002.67,0001.79,0001.58
2022-11-24 12:01:00,,0832.1,4.99,0.00,21.6,20.3,00.0,30.5,23.4,14.3,0000.0,0002.64,0001.77,0001.56
2022-11-24 12:02:00,,0832.1,5.00,0.00,21.5,20.2,00.0,30.5,23.3,14.3,0000.0,0002.61,0001.74,0001.54
2022-11-24 12:03:00,,0832.2,5.00,0.00,21.5,20.1,00.0,30.5,23.3,14.3,0000.0,0002.53,0001.70,0001.50
2022-11-24 12:04:00,,0832.1,5.00,0.00,21.5,20.0,00.0,30.5,23.3,14.3,0000.0,0002.37,0001.62,0001.47
2022-11-24 12:05:00,,0832.1,5.00,0.00,21.5,20.1,00.0,30.5,23.4,14.3,0000.0,0002.30,0001.58,0001.44
2022-11-24 12:06:00,,0832.1,5.00,0.00,21.5,20.1,00.0,30.5,23.4,14.3,0000.0,0002.48,0001.60,0001.42
2022-11-24 12:07:00,,0832.1,5.01,0.00,21.5,20.2,00.0,30.5,23.4,14.2,0000.0,0002.48,0001.58,0001.39
2022-11-24 12:08:00,,0832.1,5.01,0.00,21.6,20.2,00.0,30.5,23.4,14.2,0000.0,0002.43,0001.55,0001.37
2022-11-24 12:09:00,,0832.1,5.00,0.00,21.6,20.3,00.0,30.5,23.4,14.2,0000.0,0002.32,0001.55,0001.36
2022-11-24 12:10:00,,0832.2,5.00,0.00,21.6,20.3,00.0,30.4,23.4,14.2,0000.0,0002.35,0001.54,0001.35
2022-11-24 12:11:00,,0832.2,4.99,0.00,21.6,20.4,00.0,30.5,23.4,14.2,0000.0,0002.36,0001.55,0001.35
2022-11-24 12:12:00,,0832.2,5.00,0.00,21.6,20.4,00.0,30.5,23.4,14.2,0000.0,0002.42,0001.58,0001.36
2022-11-24 12:13:00,,0832.3,5.00,0.00,21.6,20.5,00.0,30.4,23.4,14.2,0000.0,0002.39,0001.58,0001.36
2022-11-24 12:14:00,,0832.3,5.01,0.00,21.6,20.5,00.0,30.5,23.4,14.2,0000.0,0002.47,0001.58,0001.37
2022-11-24 12:15:00,,0832.3,5.01,0.00,21.6,20.5,00.0,30.5,23.4,14.2,0000.0,0002.54,0001.60,0001.37
2022-11-24 12:16:00,,0832.4,5.01,0.00,21.6,20.8,00.0,30.4,23.5,14.2,0000.0,0002.52,0001.59,0001.37
2022-11-24 12:17:00,,0832.3,5.00,0.00,21.7,21.6,00.0,30.4,23.7,14.2,0000.0,0002.31,0001.55,0001.37
2022-11-24 12:18:00,,0832.3,4.99,0.00,21.8,22.2,00.0,30.5,23.9,14.1,0000.0,0002.26,0001.54,0001.38
2022-11-24 12:19:00,,0832.3,4.98,0.00,21.9,21.9,00.0,30.6,23.9,14.1,0000.0,0002.27,0001.55,0001.39
2022-11-24 12:20:00,,0832.3,5.01,0.00,21.9,21.6,00.0,30.6,23.9,14.1,0000.0,0002.30,0001.57,0001.41
2022-11-24 12:21:00,,0832.4,5.00,0.00,21.9,21.3,00.0,30.6,23.8,14.1,0000.0,0002.26,0001.58,0001.42
2022-11-24 12:22:00,,0832.4,5.00,0.00,21.9,21.2,00.0,30.7,23.8,14.1,0000.0,0002.33,0001.60,0001.44
2022-11-24 12:23:00,,0832.4,5.00,0.00,21.9,21.0,00.0,30.7,23.8,14.1,0000.0,0002.33,0001.57,0001.44
2022-11-24 12:24:00,,0832.5,4.99,0.00,21.9,20.9,00.0,30.7,23.8,14.1,0000.0,0002.41,0001.62,0001.45
2022-11-24 12:25:00,,0832.5,5.00,0.00,21.9,20.8,00.0,30.7,23.8,14.1,0000.0,0002.35,0001.63,0001.46
2022-11-24 12:26:00,,0832.5,5.00,0.00,21.9,20.7,00.0,30.7,23.8,14.0,0000.0,0002.32,0001.62,0001.47
2022-11-24 12:27:00,,0832.5,5.00,0.00,21.9,20.6,00.0,30.7,23.8,14.0,0000.0,0002.45,0001.67,0001.48
2022-11-24 12:28:00,,0832.5,5.00,0.00,21.9,20.5,00.0,30.7,23.7,13.9,0000.0,0002.55,0001.71,0001.48
2022-11-24 12:29:00,,0832.5,5.00,0.00,21.9,20.3,00.0,30.7,23.7,13.9,0000.0,0003.06,0001.76,0001.47
2022-11-24 12:30:00,,0832.6,5.00,0.00,21.8,20.3,00.0,30.7,23.7,14.0,0000.0,0003.41,0001.77,0001.45
2022-11-24 12:31:00,,0832.6,5.00,0.00,21.8,20.2,00.0,30.7,23.7,14.0,0000.0,0003.51,0001.79,0001.43
2022-11-24 12:32:00,,0832.6,5.00,0.00,21.8,20.2,00.0,30.7,23.7,13.9,0000.0,0003.49,0001.77,0001.40
2022-11-24 12:33:00,,0832.6,5.01,0.00,21.8,20.2,00.0,30.7,23.6,13.8,0000.0,0003.35,0001.72,0001.36
2022-11-24 12:34:00,,0832.6,5.00,0.00,21.8,20.2,00.0,30.7,23.6,13.9,0000.0,0003.32,0001.70,0001.33
2022-11-24 12:35:00,,0832.6,4.99,0.00,21.8,20.2,00.0,30.7,23.6,13.8,0000.0,0003.23,0001.64,0001.29
2022-11-24 12:36:00,,0832.6,4.99,0.00,21.8,20.2,00.0,30.7,23.6,13.9,0000.0,0003.23,0001.64,0001.26
2022-11-24 12:37:00,,0832.6,5.01,0.00,21.8,20.1,00.0,30.7,23.6,14.0,0000.0,0003.39,0001.63,0001.23
2022-11-24 12:38:00,,0832.7,4.99,0.00,21.7,20.1,00.0,30.7,23.6,14.0,0000.0,0003.31,0001.60,0001.23
2022-11-24 12:39:00,,0832.6,4.99,0.00,21.7,20.1,00.0,30.7,23.5,14.1,0000.0,0003.67,0001.58,0001.23
2022-11-24 12:40:00,,0832.7,5.01,0.00,21.7,20.2,00.0,30.7,23.5,14.1,0000.0,0003.48,0001.54,0001.24
2022-11-24 12:41:00,,0832.7,5.00,0.00,21.7,20.3,00.0,30.7,23.5,14.1,0000.0,0003.16,0001.52,0001.24
2022-11-24 12:42:00,,0832.7,4.99,0.00,21.7,20.3,00.0,30.6,23.6,14.1,0000.0,0002.98,0001.48,0001.25
2022-11-24 12:43:00,,0832.7,5.00,0.00,21.7,20.5,00.0,30.6,23.6,14.0,0000.0,0003.06,0001.49,0001.26
2022-11-24 12:44:00,,0832.8,5.01,0.00,21.8,21.3,00.0,30.6,23.7,13.8,0000.0,0003.13,0001.53,0001.27
2022-11-24 12:45:00,,0832.7,4.99,0.00,21.9,22.0,00.0,30.6,23.9,13.6,0000.0,0003.08,0001.52,0001.28
2022-11-24 12:46:00,,0832.7,4.99,0.00,21.9,21.9,00.0,30.7,24.0,13.5,0000.0,0003.11,0001.55,0001.30
2022-11-24 12:47:00,,0832.7,5.01,0.00,22.0,21.6,00.0,30.7,23.9,13.5,0000.0,0003.10,0001.53,0001.30
2022-11-24 12:48:00,,0832.7,5.01,0.00,22.0,21.3,00.0,30.7,23.9,13.4,0000.0,0003.04,0001.51,0001.30
2022-11-24 12:49:00,,0832.8,5.00,0.00,22.0,21.1,00.0,30.8,23.9,13.1,0000.0,0002.95,0001.51,0001.30
2022-11-24 12:50:00,,0832.8,5.00,0.00,22.0,21.0,00.0,30.8,23.8,13.2,0000.0,0002.75,0001.51,0001.30
2022-11-24 12:51:00,,0832.8,4.99,0.00,22.0,20.9,00.0,30.8,23.8,13.2,0000.0,0002.26,0001.52,0001.29
2022-11-24 12:52:00,,0832.7,4.99,0.00,21.9,20.8,00.0,30.8,23.8,13.0,0000.0,0002.28,0001.53,0001.28
2022-11-24 12:53:00,,0832.7,4.99,0.00,21.9,20.7,00.0,30.8,23.8,12.7,0000.0,0002.35,0001.55,0001.28
2022-11-24 12:54:00,,0832.8,5.00,0.00,21.9,20.6,00.0,30.8,23.8,12.6,0000.0,0002.27,0001.54,0001.28
2022-11-24 12:55:00,,0832.8,5.01,0.00,21.9,20.5,00.0,30.8,23.7,12.5,0000.0,0002.19,0001.52,0001.28
2022-11-24 12:56:00,,0832.8,5.00,0.00,21.9,20.4,00.0,30.8,23.7,12.5,0000.0,0002.20,0001.52,0001.29
2022-11-24 12:57:00,,0832.8,4.99,0.00,21.8,20.3,00.0,30.8,23.6,12.8,0000.0,0002.19,0001.51,0001.29
2022-11-24 12:58:00,,0832.8,5.00,0.00,21.8,20.2,00.0,30.8,23.6,12.8,0000.0,0002.15,0001.49,0001.29
2022-11-24 12:59:00,,0832.8,4.99,0.00,21.8,20.2,00.0,30.8,23.6,12.8,0000.0,0002.07,0001.49,0001.29
